SL-24 R/B, 40303

Orbit data source: Space-Track

SL-24 R/B, 40303 is space debris in SSO originally from a launch on Thu, 06 Nov 2014 UTC launched from the Orenburg, Russia (OREN). Debris objects in space refer to the collection of defunct objects orbiting the Earth. Examples of debris include non-operational satellites, rocket bodies, and fragments generated from explosions, collisions, or faulty payload assembly.

Loading next visibility...
SL-24 R/B details
Identifier
40303, 2014-070F
Orbit
SSO
Last TLE update21 hours ago
Origin
Flag of CISKosmotras (CIS)
ManufacturerYuzhnoe
MissionSpacecraft
Bus & Motor15A18-BR, Unknown motor
Mass~1,000 kg wet, ~1,000 kg dry
Launch date (UTC)
2014-11-06 (10 years ago)
Launch vehicleUnknown
Launch site
Orenburg, Russia (OREN)
Object type
Payload
Rocket body
Debris
Shape & HBRCyl, 3 m
Radar Cross Section10.603 m², Large (>1 m²)

Expand to show TLE details & history

TLE from 21 hours ago
0 SL-24 R/B
1 40303U 14070F   24360.62610808  .00001031  00000-0  23939-3 0  9992
2 40303  97.1588  53.6288 0951031 120.7442 249.0850 13.14681964485885
Epoch: 2024-12-25T15:01Z
Definitive object data (Epoch: 2024-12-25T15:01:35.738Z)
Latitude-0.00002°
Longitude93.61274°
Altitude1,522.141 km
Speed6.956 km/s
True Right ascension03h 34m 30s
True Declination0° 00' 00"
Sunlit
Object was in full shadow at TLE epoch
Visualization TLE readout
Latitude59.76065°
Longitude-73.42318°
Altitude493.955 km
Speed7.979 km/s
Apparent Right ascension20h 29m 15s
Apparent Declination18° 22' 22"
Sunlit
Object is in daylight
Visualization observer readout
Local Sidereal Time11:01:50
Azimuth39.125° NE
Elevation-21.727°
Doppler factor1
Orbital elements
Apogee altitude1,923.223 km
Perigee altitude481.377 km
Semi-major axis7,580.437 km
Eccentricity0.0951031
Inclination97.1588°
RAAN53.6288°
Arg. of periapsis120.7442°
True anomaly239.36664°
Mean anomaly249.085°
Eccentric anomaly244.17999°
Mean motion3.28853 °/min
BSTAR0.00023939
Orbital period109.47 mins
Loading maneuver chart data...
Loading historical data...
Loading historical data...
Loading historical data...
Loading historical data...
Loading historical data...
Loading historical data...
Loading historical data...

SL-24 R/B Visibility forecast

Observer location: undefined°, undefined

Span
Click to sort rows by Start time (UTC) header in descending order
Start Az.
Max El. time (UTC)
Max El. Az.
Max El.
End time (UTC)
End Az.
4 mins2024-12-26 17:12:26.978Z328.077° NNW2024-12-26 17:13:26.978Z300.806° NW26.867°2024-12-26 17:16:26.978Z229.553° WSW
10 mins2024-12-27 03:40:26.978Z163.329° S2024-12-27 03:45:26.978Z138.366° SSE44.169°2024-12-27 03:50:26.978Z350.745° N
|